Flag for Canada Weather past 2 weeks in Miramichi, New Brunswick, Canada

Now
64 °F

Overcast.


Feels Like: 64 °F
Forecast: 57 / 73 °F
Wind: 7 mph from Northeast

Location: Bathurst Airport

Current Time: Aug 21, 2014 at 11:10:43 AM

Latest Report: Aug 21, 2014 at 10:00 AM


Visibility: 15 mi

Pressure: 30.18 "Hg

Humidity: 73%

Dew point: 55 °F

Location of MiramichiLocation

Historic Weather in Miramichi — Graph

°F

Miramichi temperature yesterday

Maximum temperature yesterday: 73 °F (at 4:00 PM)
Minimum temperature yesterday: 59 °F (at 5:00 AM)
Average temperature yesterday: 66 °F

Past Weeks' High & Low Weather Summary

 TemperatureHumidityPressure
High77 °F (Aug 12, 4:00 PM)100% (Aug 6, 11:00 PM)30.19 "Hg (Aug 6, 11:00 PM)
Low48 °F (Aug 10, 6:00 AM)47% (Aug 7, 6:00 PM)29.64 "Hg (Aug 18, 2:00 PM)
Average63 °F84%29.92 "Hg
* Reported Aug 6 9:00 AM — Aug 21 9:00 AM, Miramichi, Weather by CustomWeather, © 2014

Note: Actual official high and low records may vary slightly from our data, if they occured in-between our weather recording intervals... More about our weather records

Advertising

Miramichi weather history for previous 24 hours

 ConditionsComfort  
Time TempWeatherWind HumidityBarometerVisibility
9:00 AM
Aug 21
64 °FPartly sunny.3 mph83%30.17 "Hg15 mi
8:00 AM63 °FPartly sunny.2 mph88%30.16 "Hg15 mi
7:00 AM61 °FPassing clouds.2 mph94%30.14 "Hg15 mi
6:00 AM59 °FOvercast.5 mph94%30.13 "Hg15 mi
5:00 AM55 °FPassing clouds.No wind94%30.11 "Hg15 mi
4:00 AM57 °FPassing clouds.5 mph94%30.11 "Hg15 mi
3:00 AM57 °FPassing clouds.No wind94%30.10 "Hg15 mi
2:00 AM57 °FClear.2 mph94%30.10 "Hg15 mi
1:00 AM57 °FPassing clouds.3 mph100%30.11 "Hg15 mi
12:00 AM59 °FPassing clouds.5 mph94%30.09 "Hg15 mi
11:00 PM
Aug 20
63 °FPassing clouds.3 mph88%30.08 "Hg15 mi
10:00 PM64 °FPassing clouds.5 mph83%30.08 "Hg15 mi
9:00 PM64 °FPassing clouds.3 mph88%30.06 "Hg15 mi
8:00 PM68 °FScattered clouds.6 mph78%30.04 "Hg15 mi
7:00 PM72 °FBroken clouds.3 mph65%30.01 "Hg15 mi
6:00 PM73 °FPartly sunny.3 mph57%30.01 "Hg15 mi
5:00 PM73 °FPartly sunny.5 mph61%30.00 "Hg15 mi
4:00 PM73 °FPartly sunny.No wind65%29.98 "Hg15 mi
3:00 PM70 °FPartly sunny.3 mph69%29.98 "Hg15 mi
2:00 PM70 °FPartly sunny.6 mph69%29.98 "Hg15 mi
1:00 PM70 °FMore clouds than sun.2 mph64%29.98 "Hg15 mi
12:00 PM70 °FPartly sunny.5 mph64%29.98 "Hg15 mi
11:00 AM70 °FBroken clouds.6 mph64%29.97 "Hg15 mi
Weather by CustomWeather, © 2014

See weather overviewHow to use our weather pages